Regional Weather Roundup
Issued by NWS State College, PA

Home | Current Version | Previous Version | Text Only | Print | Product List | Glossary On
Versions: 1 2 3 4 5 6 7 8 9 10 11 12 13 14 15 16 17 18 19 20 21 22 23 24 25 26 27 28 29 30 31 32 33 34 35 36 37 38 39 40 41 42 43 44 45 46 47 48 49 50
000
ASUS41 KCTP 092310
RWRCTP

REGIONAL WEATHER ROUNDUP
NATIONAL WEATHER SERVICE STATE COLLEGE PA
600 PM EST TUE FEB 09 2016

Note: "fair" indicates few or no clouds below 12,000 feet with no
significant weather and/or obstructions to visibility.

* = STATION THAT DOES NOT REPORT PRECIPITATION /E.G. RAIN...SNOW...ETC/
    THUNDER OR FOG.

PAZ002>004-007>009-013>016-020>023-029>032-100000-
WESTERN PENNSYLVANIA

CITY           SKY/WX    TMP DP  RH WIND       PRES   REMARKS
ERIE           CLOUDY    31  25  78 SW9G21    29.58R
MEADVILLE      CLOUDY    29  23  78 SW7       29.57R
FRANKLIN*      CLOUDY    28  23  80 W13       29.59R
NEW CASTLE     LGT SNOW  28  24  85 SW10      29.64R FOG
BEAVER COUNTY  CLOUDY    27  23  86 SW9G17    29.63R
BUTLER*        CLOUDY    27  21  80 SW12      29.66R
PITTSBURGH INT FLURRIES  26  21  81 SW15G23   29.64R WCI  14
PITTSBURGH     CLOUDY    28  22  78 W15       29.64R
INDIANA*       FOG       27  25  93 W13G20    29.63R VSB 1/2
LATROBE        LGT SNOW  25  23  93 SW12G21   29.66R WCI  14
WASHINGTON CO* CLOUDY    25  19  80 SW8       29.67R
$$

PAZ004>006-010>012-017>019-024>028-033>037-041-042-045-046-049>053-100000-
CENTRAL PENNSYLVANIA

CITY           SKY/WX    TMP DP  RH WIND       PRES   REMARKS
BRADFORD       CLOUDY    29  18  63 W10       29.50R
DUBOIS         CLOUDY    29  22  75 W10       29.53R
CLEARFIELD     CLOUDY    29  26  89 SW8       29.55R
JOHNSTOWN      LGT SNOW  22  17  81 W15       29.54R WCI   9
ALTOONA        CLOUDY    28  20  71 W9        29.57R
STATE COLLEGE  LGT SNOW  30  27  86 W9        29.54R FOG
WILLIAMSPORT   LGT SNOW  37  30  75 E3        29.56R
SELINSGROVE    LGT SNOW  32  30  92 CALM      29.58R FOG
FT INDIANTOWN  LGT SNOW  30  30 100 CALM      29.58R VSB 3/4
CAPITAL CITY   LGT SNOW  32  28  85 CALM      29.59R VSB 1
HARRISBURG     LGT SNOW  32  30  92 CALM      29.59R VSB 3/4
YORK           LGT SNOW  31  30  96 CALM      29.59R FOG
$$

PAZ038>040-043-044-047-048-054-055-060>062-067>071-100000-
EASTERN PENNSYLVANIA

CITY           SKY/WX    TMP DP  RH WIND       PRES   REMARKS
SCRANTON       LGT SNOW  32  30  92 SW3       29.53R FOG
MOUNT POCONO   CLOUDY    28  25  88 CALM      29.49R
ALLENTOWN      LGT SNOW  32  28  86 E3        29.59R FOG
QUAKERTOWN*    CLOUDY    32  28  86 CALM      29.58R
READING        LGT SNOW  32  29  88 CALM      29.59R FOG
LANCASTER      LGT SNOW  30  29  96 E5        29.59R FOG
COATESVILLE    LGT SNOW  32  32 100 CALM      29.58R VSB 1
POTTSTOWN      SNOW      31  31 100 CALM      29.60R VSB 1/2
BLUE BELL        N/A     32  32 100 CALM      29.59R VSB 1
DOYLESTOWN     LGT SNOW  30  29  96 CALM      29.58R FOG
WILLOW GROVE   NOT AVBL
NORTH PHILA    LGT SNOW  34  31  88 NE3       29.62R VSB 1
PHILADELPHIA   LGT SNOW  34  31  88 NE5       29.61R FOG
$$




USA.gov is the U.S. government's official web portal to all federal, state and local government web resources and services.